This demonstration page uses our WeatherBlox Daily Observations layout. Learn more.

Left ArrowRight Arrow

Hourly Observations for July 2, 2021

Temp ( °F °C ) Dew Point ( °F °C ) Humidity (%) Winds ( mph kmh ) Pressure ( in mb ) Visibility ( mi km ) Precip ( " mm )
12:15 am 00:15 Clear 68 20.2 62 16.8 81 81 SE 5 7 30.08 1019 10 16 N/A
12:35 am 00:35 Partly Cloudy 68 20 62 16.7 81 81 SSE 3 6 30.08 1019 10 16 N/A
12:55 am 00:55 Partly Cloudy 66 18.8 62 16.5 87 87 N N/A 30.09 1019 10 16 N/A
1:15 am 01:15 Partly Cloudy 68 19.8 62 16.5 81 81 ESE 3 6 30.09 1019 10 16 N/A
1:35 am 01:35 Cloudy 68 20.1 62 16.7 81 81 SE 3 6 30.09 1019 10 16 N/A
1:55 am 01:55 Cloudy 67 19.7 62 16.7 83 83 ESE 5 7 30.08 1019 10 16 N/A
2:15 am 02:15 Partly Cloudy 66 18.9 61 16 83 83 ESE 6 9 30.08 1019 10 16 N/A
2:35 am 02:35 Clear 65 18.5 60 15.8 84 84 ESE 6 9 30.08 1019 10 16 N/A
2:55 am 02:55 Clear 65 18.1 60 15.4 84 84 ESE 5 7 30.09 1019 10 16 N/A
3:15 am 03:15 Clear 64 17.9 59 15.2 84 84 ESE 3 6 30.09 1019 10 16 N/A
3:35 am 03:35 Clear 60 15.8 58 14.6 93 93 N N/A 30.12 1020 7 11 N/A
3:55 am 03:55 Clear 60 15.6 58 14.6 94 94 N N/A 30.12 1020 7 11 N/A
4:15 am 04:15 Clear with Mist and Fog 60 15.7 59 15 96 96 N N/A 30.12 1020 5 8 N/A
4:35 am 04:35 Clear with Mist and Fog 60 15.4 58 14.6 95 95 N N/A 30.13 1020 4 6 N/A
4:55 am 04:55 Clear with Mist and Fog 58 14.7 57 13.7 94 94 N N/A 30.14 1021 5 8 N/A
5:15 am 05:15 Clear with Mist and Fog 58 14.4 57 13.8 96 96 N N/A 30.14 1021 3 4 N/A
5:35 am 05:35 Clear with Mist and Fog 58 14.4 57 13.9 97 97 E 3 6 30.14 1021 2 3 N/A
5:55 am 05:55 Clear with Mist and Fog 57 13.9 56 13.5 97 97 N N/A 30.15 1021 3 4 N/A
6:15 am 06:15 Mostly Cloudy with Mist and Fog 57 14 56 13.6 97 97 N N/A 30.14 1021 2 2 N/A
6:35 am 06:35 Mostly Cloudy with Mist and Fog 56 13.6 56 13.2 97 97 NNW 3 6 30.16 1021 2 3 N/A
6:55 am 06:55 Mostly Cloudy with Mist and Fog 58 14.5 57 14 97 97 N N/A 30.14 1021 1 2 N/A
7:15 am 07:15 Sunny with Mist and Fog 61 16 60 15.3 96 96 N N/A 30.14 1021 3 4 N/A
7:35 am 07:35 Sunny with Mist and Fog 62 16.9 60 15.6 92 92 N N/A 30.13 1020 3 5 N/A
7:55 am 07:55 Sunny with Mist and Fog 63 17.4 61 16 92 92 N N/A 30.11 1020 4 6 N/A
8:15 am 08:15 Hazy 66 18.9 60 15.7 82 82 N N/A 30.11 1020 5 8 N/A
8:35 am 08:35 Sunny 67 19.7 61 16.1 80 80 N N/A 30.10 1019 7 11 N/A
8:55 am 08:55 Sunny 70 21.1 61 16.1 73 73 N N/A 30.09 1019 10 16 N/A
9:15 am 09:15 Sunny 72 22.2 63 17 73 73 N N/A 30.09 1019 10 16 N/A
9:35 am 09:35 Sunny 73 22.9 62 16.6 68 68 SSE 3 6 30.09 1019 10 16 N/A
9:55 am 09:55 Sunny 74 23.6 62 16.5 65 65 ESE 3 6 30.07 1018 10 16 N/A
10:15 am 10:15 Partly Cloudy 75 24.1 59 14.8 56 56 SE 7 11 30.07 1018 10 16 N/A
10:35 am 10:35 Mostly Cloudy 75 24 60 15.4 59 59 SSW 6 9 30.07 1018 10 16 N/A
10:55 am 10:55 Partly Cloudy 76 24.4 58 14.5 54 54 S 7 11 30.06 1018 10 16 N/A
11:15 am 11:15 Partly Cloudy 77 24.9 59 14.8 54 54 SSE 9 15 30.06 1018 10 16 N/A
11:35 am 11:35 Partly Cloudy 76 24.6 58 14.3 53 53 SSE 7 11 30.06 1018 10 16 N/A
11:55 am 11:55 Mostly Cloudy 78 25.6 58 14.4 50 50 SSE 9 15 30.04 1017 10 16 N/A
12:15 pm 12:15 Partly Cloudy 80 26.5 58 14.2 47 47 SSE 8 13 30.04 1017 10 16 N/A
12:35 pm 12:35 Partly Cloudy 81 27 59 14.9 48 48 SSE 8 13 30.03 1017 10 16 N/A
12:55 pm 12:55 Partly Cloudy 81 27 59 14.8 47 47 SSE 10 17 30.03 1017 10 16 N/A
1:15 pm 13:15 Mostly Cloudy 78 25.8 59 14.9 51 51 S 9 15 30.04 1017 10 16 N/A
1:35 pm 13:35 Mostly Cloudy 78 25.5 60 15.5 54 54 S 12 19 30.04 1017 10 16 N/A
1:55 pm 13:55 Partly Cloudy 78 25.3 60 15.6 55 55 S 10 17 30.04 1017 10 16 N/A
2:15 pm 14:15 Sunny 78 25.4 60 15.6 55 55 S 9 15 30.04 1017 10 16 N/A
2:35 pm 14:35 Sunny 78 25.6 60 15.3 53 53 S 8 13 30.03 1017 10 16 N/A
2:55 pm 14:55 Sunny 79 26.2 60 15.7 52 52 SSE 7 11 30.02 1017 10 16 N/A
3:15 pm 15:15 Sunny 80 26.8 60 15.7 51 51 SE 9 15 30.01 1016 10 16 N/A
3:35 pm 15:35 Sunny 81 27 61 15.9 51 51 SSE 10 17 29.99 1016 10 16 N/A
3:55 pm 15:55 Partly Cloudy 81 27 60 15.8 50 50 ESE 10 17 29.99 1016 10 16 N/A
4:15 pm 16:15 Mostly Cloudy 82 27.9 60 15.7 47 47 SSE 10 17 29.98 1015 10 16 N/A
4:35 pm 16:35 Mostly Cloudy 83 28.5 60 15.6 46 46 SSE 12 19 29.97 1015 10 16 N/A
4:55 pm 16:55 Partly Cloudy 83 28.4 58 14.6 43 43 SSE 13 20 29.96 1015 10 16 N/A
5:15 pm 17:15 Sunny 83 28.6 57 14.1 41 41 SSE 10 17 29.95 1014 10 16 N/A
5:35 pm 17:35 Sunny 84 28.8 55 13 38 38 SSE 13 20 29.95 1014 10 16 N/A
5:55 pm 17:55 Sunny 83 28.5 57 13.8 41 41 SSE 10 17 29.94 1014 10 16 N/A
6:15 pm 18:15 Sunny 83 28.3 57 13.8 41 41 S 8 13 29.93 1014 10 16 N/A
6:35 pm 18:35 Sunny 83 28.2 57 14.1 42 42 SSE 10 17 29.93 1014 10 16 N/A
6:55 pm 18:55 Partly Cloudy 83 28.1 57 14.1 42 42 SSE 9 15 29.92 1013 10 16 N/A
7:15 pm 19:15 Sunny 82 28 58 14.2 43 43 SSE 7 11 29.92 1013 10 16 N/A
7:35 pm 19:35 Sunny 82 27.6 58 14.4 44 44 SSE 7 11 29.93 1013 10 16 N/A
7:55 pm 19:55 Sunny 81 27.2 59 14.9 47 47 SSE 8 13 29.93 1014 10 16 N/A
8:15 pm 20:15 Sunny 80 26.8 59 15.2 49 49 SSE 7 11 29.93 1014 10 16 N/A
8:35 pm 20:35 Sunny 79 26.1 61 16 54 54 SE 9 15 29.94 1014 10 16 N/A
8:55 pm 20:55 Sunny 78 25.4 62 16.4 58 58 SE 8 13 29.95 1014 10 16 N/A
9:15 pm 21:15 Clear 76 24.5 61 16.2 60 60 SE 7 11 29.95 1014 10 16 N/A
9:35 pm 21:35 Clear 75 23.9 62 16.5 63 63 SE 6 9 29.96 1015 10 16 N/A
9:55 pm 21:55 Clear 74 23.2 62 16.5 66 66 SE 7 11 29.97 1015 10 16 N/A
10:15 pm 22:15 Clear 73 23 62 16.5 67 67 SE 6 9 29.99 1015 10 16 N/A
10:35 pm 22:35 Clear 73 22.8 62 16.4 67 67 SE 7 11 30.00 1016 10 16 N/A
10:55 pm 22:55 Clear 73 22.8 62 16.5 68 68 ESE 9 15 30.00 1016 10 16 N/A
11:15 pm 23:15 Clear 72 22.1 62 16.7 72 72 ESE 7 11 30.00 1016 10 16 N/A
11:35 pm 23:35 Clear 71 21.6 62 16.5 73 73 SE 7 11 30.01 1016 10 16 N/A
11:55 pm 23:55 Clear 70 21.2 62 16.5 75 75 SE 6 9 30.01 1016 10 16 N/A

Powered by AerisWeather